Regional Weather Roundup
Issued by NWS

Home | Current Version | Previous Version | Graphics & Text | Print | Product List | Glossary On
Versions: 1 2 3 4 5 6 7 8 9 10 11 12 13 14 15 16 17 18 19 20 21 22 23 24 25 26 27 28 29 30 31 32 33 34 35 36 37 38 39 40 41 42 43 44 45 46 47 48 49 50
000
ASUS44 KMEG 241510
RWRTN
TENNESSEE HOURLY STATE WEATHER ROUNDUP
NATIONAL WEATHER SERVICE MEMPHIS TN
900 AM CST FRI FEB 24 2017

TNZ002-004-019-021-049-052-054-088>092-241600-
WEST TENNESSEE

CITY           SKY/WX    TMP DP  RH WIND       PRES   REMARKS
MEMPHIS INTL   MOSUNNY   67  56  67 S21G33    29.68S
NWS MEMPHIS      N/A     65 N/A N/A MISG        N/A
JACKSON        MOSUNNY   68  57  68 S18G25    29.68F
UNION CITY     SUNNY     66  54  63 S14       29.62F
PARIS          SUNNY     64  54  68 S17       29.68S
HUNTINGDON     SUNNY     68  57  68 S15       29.68F
$$

TNZ008-025-027-028-033-062-065-066-241600-
NORTH MIDDLE TENNESSEE

CITY           SKY/WX    TMP DP  RH WIND       PRES   REMARKS
NASHVILLE      PTSUNNY   71  56  58 S15G24    29.77S
PORTLAND       SUNNY     68  57  68 S20G28    29.75S
CLARKSVILLE    MOSUNNY   69  56  62 S20G30    29.71R
SMYRNA         MOSUNNY   70  58  65 S17       29.78F
COOKEVILLE     SUNNY     70  54  56 S12G18    29.81S
GALLATIN       SUNNY     70  57  64 S13G21    29.80R
CROSSVILLE     SUNNY     64  52  64 S13G21    29.87S
$$

TNZ061-075-076-078-094-096-097-241600-
SOUTH MIDDLE TENNESSEE

CITY           SKY/WX    TMP DP  RH WIND       PRES   REMARKS
FAYETTEVILLE   MOSUNNY   64  57  77 S14       29.84R
TULLAHOMA      MOSUNNY   68  55  64 S16       29.83F
WINCHESTER     SUNNY     68  55  64 S14       29.85S
MCMINNVILLE    SUNNY     72  55  56 S10       29.82S
COLUMBIA       SUNNY     70  63  78 S16       29.76S
SHELBYVILLE    SUNNY     70  61  73 S18       29.81S
$$

TNZ017-018-042-046-047-241600-
NORTHEAST TENNESSEE

CITY           SKY/WX    TMP DP  RH WIND       PRES   REMARKS
TRI CITIES     MOSUNNY   63  50  62 VRB3      29.89F
ELIZABETHTON   SUNNY     63  50  63 E6        29.90F
$$

TNZ012-013-036-069-073-074-241600-
CENTRAL EAST TENNESSEE

CITY           SKY/WX    TMP DP  RH WIND       PRES   REMARKS
KNOXVILLE      MOSUNNY   64  51  62 SW3       29.88R
OAK RIDGE      SUNNY     65  51  60 W6        29.89R
GATLINBURG     SUNNY     59  50  72 CALM      29.87S
MORRISTOWN     SUNNY     64  52  63 S3        29.87S
JACKSBORO      SUNNY     68  54  60 SW20G29   29.88F
$$

TNZ083-085-099-241600-
SOUTHEAST TENNESSEE

CITY           SKY/WX    TMP DP  RH WIND       PRES   REMARKS
CHATTANOOGA    MOSUNNY   66  55  67 S6        29.89S
$$

SKY/WX REPORTED AS FAIR MEANS FEW OR NO CLOUDS BELOW
12 THOUSAND FEET.





USA.gov is the U.S. government's official web portal to all federal, state and local government web resources and services.